| time (UTC) | temp F | wind direction | speed MPH | gust MPH | rain 1hr in | rain 24hr in | rain mn in | humidity % | barometer mb |
| 20260902224517 | 85 | 248 | 4.0 | 8.0 | 0.00 | 0.00 | 0.00 | 63 | 1012.8 |
| 20260902223517 | 86 | 225 | 2.0 | 4.0 | 0.00 | 0.00 | 0.00 | 63 | 1013.0 |
| 20260902222517 | 85 | 248 | 2.0 | 7.0 | 0.00 | 0.00 | 0.00 | 66 | 1013.1 |
| 20260902221517 | 86 | 225 | 3.0 | 8.0 | 0.00 | 0.00 | 0.00 | 65 | 1013.0 |
| 20260902220537 | 87 | 225 | 2.0 | 6.0 | 0.00 | 0.00 | 0.00 | 64 | 1013.1 |
| 20260902215537 | 86 | 248 | 2.0 | 4.0 | 0.00 | 0.00 | 0.00 | 64 | 1013.0 |
| 20260902214517 | 86 | 270 | 2.0 | 4.0 | 0.00 | 0.00 | 0.00 | 64 | 1013.0 |
| 20260902213517 | 86 | 225 | 4.0 | 9.0 | 0.00 | 0.00 | 0.00 | 62 | 1013.1 |
| 20260902212539 | 86 | 225 | 2.0 | 6.0 | 0.00 | 0.00 | 0.00 | 63 | 1013.0 |
| 20260902211537 | 87 | 225 | 2.0 | 7.0 | 0.00 | 0.00 | 0.00 | 61 | 1013.3 |
| 20260902210517 | 86 | 180 | 2.0 | 7.0 | 0.00 | 0.00 | 0.00 | 66 | 1013.2 |
| 20260902205517 | 86 | 225 | 2.0 | 6.0 | 0.00 | 0.00 | 0.00 | 66 | 1013.1 |
| 20260902204517 | 85 | 225 | 3.0 | 6.0 | 0.00 | 0.00 | 0.00 | 66 | 1013.3 |
| 20260902203517 | 84 | 225 | 3.0 | 8.0 | 0.00 | 0.00 | 0.00 | 70 | 1013.6 |
| 20260902202517 | 85 | 203 | 4.0 | 11.0 | 0.00 | 0.00 | 0.00 | 67 | 1013.8 |
| 20260902201517 | 84 | 225 | 5.0 | 11.0 | 0.00 | 0.00 | 0.00 | 68 | 1013.9 |
| 20260902200517 | 83 | 225 | 4.0 | 11.0 | 0.00 | 0.00 | 0.00 | 68 | 1013.9 |
| 20260902195517 | 83 | 225 | 4.0 | 9.0 | 0.00 | 0.00 | 0.00 | 68 | 1013.8 |
| 20260902194518 | 83 | 225 | 5.0 | 14.0 | 0.00 | 0.00 | 0.00 | 70 | 1013.9 |
| 20260902193517 | 83 | 248 | 5.0 | 13.0 | 0.00 | 0.00 | 0.00 | 71 | 1014.2 |
| 20260902192537 | 83 | 203 | 3.0 | 15.0 | 0.00 | 0.00 | 0.00 | 75 | 1014.2 |
| 20260902191517 | 82 | 225 | 6.0 | 10.0 | 0.00 | 0.00 | 0.00 | 77 | 1014.3 |
| 20260902190517 | 82 | 248 | 2.0 | 7.0 | 0.00 | 0.00 | 0.00 | 78 | 1014.4 |
| 20260902185517 | 81 | 225 | 4.0 | 9.0 | 0.00 | 0.00 | 0.00 | 78 | 1014.4 |
| 20260902184517 | 81 | 225 | 3.0 | 7.0 | 0.00 | 0.00 | 0.00 | 78 | 1014.3 |
| 20260902183517 | 82 | 248 | 3.0 | 8.0 | 0.00 | 0.00 | 0.00 | 76 | 1014.2 |
| 20260902182517 | 82 | 225 | 1.0 | 4.0 | 0.00 | 0.00 | 0.00 | 77 | 1014.4 |
| 20260902181517 | 82 | 225 | 2.0 | 6.0 | 0.00 | 0.00 | 0.00 | 77 | 1014.3 |
| 20260902180516 | 82 | 225 | 2.0 | 6.0 | 0.00 | 0.00 | 0.00 | 78 | 1014.0 |
| 20260902175517 | 82 | 225 | 2.0 | 4.0 | 0.00 | 0.00 | 0.00 | 78 | 1014.3 |
| 20260902174517 | 81 | 225 | 3.0 | 8.0 | 0.00 | 0.00 | 0.00 | 77 | 1014.4 |
| 20260902173517 | 82 | 180 | 3.0 | 8.0 | 0.00 | 0.00 | 0.00 | 76 | 1014.3 |
| 20260902172517 | 82 | 225 | 2.0 | 7.0 | 0.00 | 0.00 | 0.00 | 76 | 1014.5 |
| 20260902171517 | 82 | 225 | 3.0 | 6.0 | 0.00 | 0.00 | 0.00 | 78 | 1014.5 |
| 20260902170517 | 81 | 225 | 1.0 | 5.0 | 0.00 | 0.00 | 0.00 | 77 | 1014.6 |
| 20260902165538 | 81 | 158 | 4.0 | 7.0 | 0.00 | 0.00 | 0.00 | 78 | 1014.5 |
| 20260902164517 | 80 | 158 | 5.0 | 10.0 | 0.00 | 0.00 | 0.00 | 77 | 1014.4 |
| 20260902163517 | 80 | 135 | 3.0 | 6.0 | 0.00 | 0.00 | 0.00 | 79 | 1014.7 |
| 20260902162516 | 79 | 158 | 5.0 | 9.0 | 0.00 | 0.00 | 0.00 | 79 | 1014.7 |
| 20260902161516 | 79 | 180 | 4.0 | 9.0 | 0.00 | 0.00 | 0.00 | 78 | 1014.7 |
| 20260902160516 | 78 | 135 | 4.0 | 8.0 | 0.00 | 0.00 | 0.00 | 78 | 1014.6 |
| 20260902155517 | 78 | 158 | 2.0 | 5.0 | 0.00 | 0.00 | 0.00 | 81 | 1014.4 |
| 20260902154517 | 77 | 180 | 3.0 | 7.0 | 0.00 | 0.00 | 0.00 | 81 | 1014.5 |
| 20260902153517 | 76 | 113 | 3.0 | 8.0 | 0.00 | 0.00 | 0.00 | 83 | 1014.2 |
| 20260902152517 | 75 | 158 | 1.0 | 5.0 | 0.00 | 0.00 | 0.00 | 85 | 1014.5 |
| 20260902151516 | 74 | 113 | 5.0 | 8.0 | 0.00 | 0.00 | 0.00 | 83 | 1014.2 |
| 20260902150516 | 74 | 158 | 1.0 | 5.0 | 0.00 | 0.00 | 0.00 | 84 | 1014.6 |
| 20260902145516 | 73 | 135 | 2.0 | 7.0 | 0.00 | 0.00 | 0.00 | 85 | 1014.5 |
| 20260902144517 | 73 | 135 | 6.0 | 10.0 | 0.00 | 0.00 | 0.00 | 84 | 1014.3 |
| 20260902143517 | 73 | 113 | 5.0 | 9.0 | 0.00 | 0.00 | 0.00 | 85 | 1014.3 |
| 20260902142516 | 72 | 135 | 2.0 | 4.0 | 0.00 | 0.00 | 0.00 | 88 | 1014.6 |
| 20260902141516 | 71 | 90 | 3.0 | 8.0 | 0.00 | 0.00 | 0.00 | 87 | 1014.6 |
| 20260902140516 | 70 | 90 | 2.0 | 7.0 | 0.00 | 0.00 | 0.00 | 90 | 1014.9 |
| 20260902135516 | 69 | 248 | 1.0 | 6.0 | 0.00 | 0.00 | 0.00 | 92 | 1015.2 |
| 20260902134517 | 69 | 135 | 1.0 | 3.0 | 0.00 | 0.00 | 0.00 | 92 | 1014.8 |
| 20260902133516 | 68 | 113 | 1.0 | 3.0 | 0.00 | 0.00 | 0.00 | 93 | 1014.7 |
| 20260902132536 | 68 | 90 | 2.0 | 5.0 | 0.00 | 0.00 | 0.00 | 93 | 1014.7 |
| 20260902131517 | 67 | 90 | 2.0 | 4.0 | 0.00 | 0.00 | 0.00 | 93 | 1015.0 |
| 20260902130516 | 67 | 113 | 3.0 | 7.0 | 0.00 | 0.00 | 0.00 | 93 | 1014.6 |
| 20260902125538 | 67 | 113 | 3.0 | 6.0 | 0.00 | 0.00 | 0.00 | 93 | 1014.7 |
| 20260902124516 | 67 | 90 | 1.0 | 4.0 | 0.00 | 0.00 | 0.00 | 94 | 1014.8 |
| 20260902123516 | 67 | 68 | 3.0 | 8.0 | 0.00 | 0.00 | 0.00 | 94 | 1014.6 |
| 20260902122536 | 66 | 68 | 3.0 | 7.0 | 0.00 | 0.00 | 0.00 | 95 | 1014.3 |
| 20260902121516 | 67 | 113 | 7.0 | 11.0 | 0.00 | 0.00 | 0.00 | 94 | 1014.1 |
| 20260902120516 | 67 | 68 | 5.0 | 9.0 | 0.00 | 0.00 | 0.00 | 94 | 1014.2 |
| 20260902115556 | 67 | 90 | 7.0 | 11.0 | 0.00 | 0.00 | 0.00 | 94 | 1014.7 |
| 20260902114516 | 67 | 0 | 2.0 | 5.0 | 0.00 | 0.00 | 0.00 | 94 | 1015.7 |
| 20260902113516 | 67 | 293 | 1.0 | 4.0 | 0.00 | 0.00 | 0.00 | 94 | 1015.7 |
| 20260902112518 | 67 | 338 | 3.0 | 9.0 | 0.00 | 0.00 | 0.00 | 94 | 1015.5 |
| 20260902111516 | 67 | 0.0 | 4.0 | 0.00 | 0.00 | 0.00 | 93 | 1015.2 | |
| 20260902110516 | 68 | 45 | 2.0 | 5.0 | 0.00 | 0.00 | 0.00 | 93 | 1014.9 |
| 20260902105518 | 68 | 113 | 2.0 | 7.0 | 0.00 | 0.00 | 0.00 | 93 | 1014.2 |
| 20260902104517 | 68 | 68 | 2.0 | 5.0 | 0.00 | 0.00 | 0.00 | 93 | 1014.3 |
| 20260902103516 | 68 | 68 | 3.0 | 6.0 | 0.00 | 0.00 | 0.00 | 92 | 1014.2 |
| 20260902102556 | 68 | 45 | 2.0 | 5.0 | 0.00 | 0.00 | 0.00 | 92 | 1014.3 |
| 20260902101516 | 68 | 68 | 3.0 | 7.0 | 0.00 | 0.00 | 0.00 | 92 | 1014.1 |
| 20260902100516 | 68 | 90 | 3.0 | 8.0 | 0.00 | 0.00 | 0.00 | 91 | 1014.3 |
| 20260902095536 | 69 | 90 | 3.0 | 6.0 | 0.00 | 0.00 | 0.00 | 90 | 1014.3 |
| 20260902094536 | 69 | 45 | 2.0 | 6.0 | 0.00 | 0.00 | 0.00 | 90 | 1014.6 |
| 20260902093516 | 69 | 68 | 2.0 | 4.0 | 0.00 | 0.00 | 0.00 | 89 | 1014.6 |
| 20260902092516 | 69 | 68 | 1.0 | 3.0 | 0.00 | 0.00 | 0.00 | 89 | 1014.6 |
| 20260902091516 | 69 | 0.0 | 3.0 | 0.00 | 0.00 | 0.00 | 88 | 1014.7 | |
| 20260902090516 | 70 | 338 | 1.0 | 4.0 | 0.00 | 0.00 | 0.00 | 88 | 1015.0 |
| 20260902085516 | 70 | 315 | 2.0 | 8.0 | 0.00 | 0.00 | 0.00 | 87 | 1015.4 |
| 20260902084536 | 70 | 315 | 4.0 | 11.0 | 0.00 | 0.00 | 0.00 | 87 | 1015.5 |
| 20260902083516 | 71 | 315 | 10.0 | 19.0 | 0.00 | 0.00 | 0.00 | 86 | 1016.0 |
| 20260902082516 | 72 | 293 | 6.0 | 13.0 | 0.00 | 0.00 | 0.00 | 87 | 1016.1 |
| 20260902081516 | 72 | 113 | 6.0 | 25.0 | 0.00 | 0.00 | 0.00 | 86 | 1014.3 |
| 20260902080516 | 73 | 135 | 2.0 | 4.0 | 0.00 | 0.00 | 0.00 | 84 | 1013.8 |
| 20260902075516 | 73 | 113 | 4.0 | 6.0 | 0.00 | 0.00 | 0.00 | 83 | 1013.8 |
| 20260902074516 | 73 | 113 | 4.0 | 7.0 | 0.00 | 0.00 | 0.00 | 83 | 1013.8 |
| 20260902073516 | 73 | 90 | 4.0 | 7.0 | 0.00 | 0.00 | 0.00 | 83 | 1013.8 |
| 20260902072516 | 73 | 113 | 2.0 | 6.0 | 0.00 | 0.00 | 0.00 | 86 | 1014.0 |
| 20260902071516 | 73 | 113 | 3.0 | 6.0 | 0.00 | 0.00 | 0.00 | 87 | 1013.9 |
| 20260902070516 | 73 | 90 | 4.0 | 6.0 | 0.00 | 0.00 | 0.00 | 89 | 1014.0 |
| 20260902065516 | 73 | 113 | 3.0 | 6.0 | 0.00 | 0.00 | 0.00 | 89 | 1013.9 |
| 20260902064536 | 73 | 90 | 3.0 | 4.0 | 0.00 | 0.00 | 0.00 | 90 | 1014.0 |
| 20260902063516 | 73 | 90 | 1.0 | 5.0 | 0.00 | 0.00 | 0.00 | 90 | 1014.0 |
| 20260902062516 | 73 | 90 | 3.0 | 6.0 | 0.00 | 0.00 | 0.00 | 91 | 1013.8 |
| 20260902061515 | 73 | 68 | 3.0 | 5.0 | 0.00 | 0.00 | 0.00 | 91 | 1014.1 |
| 20260902060536 | 73 | 45 | 2.0 | 4.0 | 0.00 | 0.00 | 0.00 | 91 | 1014.3 |
| 20260902055515 | 73 | 68 | 4.0 | 8.0 | 0.00 | 0.00 | 0.00 | 94 | 1014.5 |
| 20260902054516 | 73 | 315 | 1.0 | 3.0 | 0.00 | 0.00 | 0.00 | 96 | 1014.8 |
| 20260902053516 | 73 | 315 | 2.0 | 5.0 | 0.00 | 0.00 | 0.00 | 96 | 1014.7 |
| 20260902052516 | 73 | 68 | 1.0 | 3.0 | 0.00 | 0.00 | 0.00 | 96 | 1014.3 |
| 20260902051516 | 73 | 45 | 1.0 | 4.0 | 0.00 | 0.00 | 0.00 | 96 | 1014.4 |
| 20260902050516 | 74 | 90 | 2.0 | 4.0 | 0.00 | 0.00 | 0.00 | 96 | 1014.3 |
| 20260902045516 | 74 | 68 | 2.0 | 3.0 | 0.00 | 0.00 | 0.00 | 95 | 1014.4 |
| 20260902044516 | 74 | 90 | 3.0 | 5.0 | 0.00 | 0.00 | 0.00 | 95 | 1014.3 |
| 20260902043517 | 74 | 0.0 | 3.0 | 0.00 | 0.00 | 0.00 | 94 | 1014.1 | |
| 20260902042516 | 75 | 0.0 | 0.0 | 0.00 | 0.00 | 0.00 | 93 | 1014.2 | |
| 20260902041516 | 75 | 0.0 | 0.0 | 0.00 | 0.00 | 0.00 | 93 | 1014.0 | |
| 20260902040516 | 75 | 0.0 | 0.0 | 0.00 | 0.00 | 0.00 | 93 | 1013.9 | |
| 20260902035516 | 75 | 0.0 | 2.0 | 0.00 | 0.00 | 0.00 | 93 | 1014.1 | |
| 20260902034516 | 75 | 0.0 | 2.0 | 0.00 | 0.00 | 0.00 | 92 | 1014.3 | |
| 20260902033516 | 76 | 0.0 | 3.0 | 0.00 | 0.00 | 0.00 | 92 | 1014.3 | |
| 20260902032516 | 76 | 0.0 | 0.0 | 0.00 | 0.00 | 0.00 | 91 | 1014.3 | |
| 20260902031516 | 76 | 90 | 2.0 | 3.0 | 0.00 | 0.00 | 0.00 | 90 | 1014.2 |
| 20260902030516 | 76 | 0.0 | 0.0 | 0.00 | 0.00 | 0.00 | 90 | 1014.3 | |
| 20260902025518 | 76 | 0.0 | 0.0 | 0.00 | 0.00 | 0.00 | 90 | 1014.4 | |
| 20260902024516 | 76 | 0.0 | 0.0 | 0.00 | 0.00 | 0.00 | 89 | 1014.5 | |
| 20260902023516 | 76 | 0.0 | 0.0 | 0.00 | 0.00 | 0.00 | 89 | 1014.5 | |
| 20260902022516 | 76 | 0.0 | 0.0 | 0.00 | 0.00 | 0.00 | 89 | 1014.5 | |
| 20260902021516 | 77 | 0.0 | 0.0 | 0.00 | 0.00 | 0.00 | 89 | 1014.4 | |
| 20260902020538 | 77 | 0.0 | 0.0 | 0.00 | 0.00 | 0.00 | 89 | 1014.3 | |
| 20260902015516 | 77 | 0.0 | 1.0 | 0.00 | 0.00 | 0.00 | 89 | 1014.3 | |
| 20260902014516 | 77 | 338 | 2.0 | 4.0 | 0.00 | 0.00 | 0.00 | 89 | 1014.1 |
| 20260902013516 | 77 | 0.0 | 0.0 | 0.00 | 0.00 | 0.00 | 88 | 1014.1 | |
| 20260902012516 | 78 | 338 | 1.0 | 4.0 | 0.00 | 0.00 | 0.00 | 88 | 1013.8 |
| 20260902011516 | 78 | 338 | 3.0 | 6.0 | 0.00 | 0.00 | 0.00 | 88 | 1013.9 |
| 20260902010516 | 78 | 315 | 1.0 | 2.0 | 0.00 | 0.00 | 0.00 | 89 | 1013.6 |
| 20260902005536 | 78 | 225 | 1.0 | 6.0 | 0.00 | 0.00 | 0.00 | 89 | 1013.1 |
| 20260902004516 | 78 | 180 | 3.0 | 6.0 | 0.00 | 0.00 | 0.00 | 88 | 1012.8 |
| 20260902003516 | 78 | 23 | 2.0 | 5.0 | 0.00 | 0.00 | 0.00 | 88 | 1013.0 |
| 20260902002516 | 78 | 158 | 5.0 | 9.0 | 0.00 | 0.00 | 0.00 | 88 | 1012.7 |
| 20260902001536 | 79 | 158 | 3.0 | 4.0 | 0.00 | 0.00 | 0.00 | 85 | 1013.6 |
| 20260902000516 | 79 | 0.0 | 0.0 | 0.00 | 0.00 | 0.00 | 84 | 1014.1 | |
| 20260901235536 | 80 | 158 | 1.0 | 3.0 | 0.00 | 0.00 | 0.00 | 84 | 1014.1 |
| 20260901234516 | 80 | 0.0 | 3.0 | 0.00 | 0.00 | 0.00 | 84 | 1014.5 | |
| 20260901233516 | 80 | 0.0 | 2.0 | 0.00 | 0.00 | 0.00 | 83 | 1014.6 | |
| 20260901232516 | 81 | 270 | 1.0 | 2.0 | 0.00 | 0.00 | 0.00 | 80 | 1014.6 |
| 20260901231516 | 83 | 248 | 1.0 | 3.0 | 0.00 | 0.00 | 0.00 | 78 | 1014.2 |
| 20260901230516 | 83 | 0.0 | 2.0 | 0.00 | 0.00 | 0.00 | 76 | 1013.9 | |
| 20260901225536 | 84 | 0.0 | 1.0 | 0.00 | 0.00 | 0.00 | 76 | 1014.2 |